2021-107B (49493 NORAD) Tracking and Keplerian Element Data

This shows tracking and keplerian element data for the satellite.

Feedback or suggestion? Click here.




ElementValue
Catalog49493
Name2021-107B
Epoch Orbit252
Epoch Day340.10949358
Epoch Year2021
RAAN31.3345
Inclination97.4036
Eccentricity0.0200016
Argument of Perigee84.5752
Mean Anonmoly335.0532
Mean Motion15.75588304
Decay Rate0.00215091
L11 49493U 21107B 21340.10949358 .00215091 20621-5 35870-3 0 9999
L22 49493 97.4036 31.3345 0200016 84.5752 335.0532 15.75588304 2525

Live tracking and technical data element details for 2021-107B (NORAD 49493). 2021-107B can be tracked NOW for your location showing map with azimuth and elevation plus other details from your city location.

Track the satellite on the map from your city or location and see movement details for azimuth, elevation, latitude, longitude, range, height, and movement on the map or in text.







IsCatalogInMostPopularTable: catalog: 49493, numindb: 1
Update: records affected: 1



GetName: 49493 2021-107B

Hit Count: updated at: Wed, 08 Dec 2021 16:47:39 GMT